Torna al catalogo

GHGSAT-C7

AttivoScienzaSSO
NORAD 56209·PAYLOAD·🇨🇦 Canada

Lanciato Apr 15, 2023 da Vandenberg Space Force Base

Loading…

Prossimi Passaggi (prossime 24 ore)

TLE

AggiornatoSource: Space-Track

Epoca: Sep 14, 2026, 13:37 UTC

1 56209U 23054AH  26257.56746841  .00009059  00000-0  15435-3 0  9993
2 56209  97.2911 167.1325 0008948  78.8549 281.3709 15.51565179192241

Traccia GHGSAT-C7 in tempo reale con AllMySat

Download on the App Store